Salem, OR

12:08 AM PDT on July 25, 2017 (GMT -0700)
McNary

Weather History for KSLE - December, 2011

Change the Weather History Date:

Tuesday, December 6, 2011

  Actual Average Record
Temperature  
Mean Temperature 29 °F 41 °F  
Max Temperature 33 °F 47 °F 60 °F (1965)
Min Temperature 25 °F 35 °F 18 °F (1956)
Degree Days  
Heating Degree Days 36 24  
Month to date heating degree days 175 141  
Since 1 July heating degree days 1162 1258  
Cooling Degree Days 0 0  
Month to date cooling degree days 0 0  
Year to date cooling degree days 316 290  
Moisture  
Dew Point 27 °F    
Average Humidity 93    
Maximum Humidity 100    
Minimum Humidity 85    
Precipitation  
Precipitation 0.00 in 0.23 in 4.30 in (1933)
Month to date precipitation T 1.46  
Year to date precipitation 32.56 34.27  
Snow  
Snow 0.00 in - - ()
Month to date snowfall 0.0  
Snow Depth 0.00 in    
Sea Level Pressure  
Sea Level Pressure 30.44 in    
Wind  
Wind Speed 1 mph (SE)    
Max Wind Speed 6 mph    
Max Gust Speed 7 mph    
Visibility 2 miles    
Events Fog    
T = Trace of Precipitation, MM = Missing Value Source: NWS Daily Summary

Daily Weather History Graph

Daily Weather History Graph

Search for Another Location

Airport or City:

Trip Planner

Search our weather history database for the weather conditions in past years. The results will help you decide how hot, cold, wet, or windy it might be!

Date:

Astronomy

Dec. 06, 2011 Rise Set
Actual Time 7:34 AM PST 4:30 PM PST
Civil Twilight 7:01 AM PST 5:04 PM PST
Nautical Twilight 6:24 AM PST 5:41 PM PST
Astronomical Twilight 5:49 AM PST 6:16 PM PST
Moon 2:06 PM PST (12/6) 3:53 AM PST (12/6)
Length of Visible Light 10h 02m
Length of Day
8h 56m
Waxing Gibbous, 87% of the Moon is Illuminated
Dec 6
Waxing Gibbous
Dec 10
Full
Dec 17
Last Quarter
Dec 24
New
Dec 31
First Quarter

Hourly Weather History & Observations

Time (PST) Temp. Windchill Dew Point Humidity Pressure Visibility Wind Dir Wind Speed Gust Speed Precip Events Conditions
12:01 AM 26.6 °F - 24.8 °F 93% 30.40 in 1.5 mi Calm Calm - N/A   Partly Cloudy
12:03 AM 26.6 °F 22.6 °F 24.8 °F 93% 30.40 in 0.8 mi SE 3.5 mph - N/A   Mist
12:30 AM 26.6 °F 22.6 °F 24.8 °F 93% 30.40 in 1.5 mi South 3.5 mph - N/A   Mostly Cloudy
12:32 AM 28.4 °F 24.6 °F 24.8 °F 86% 30.40 in 3.0 mi South 3.5 mph - N/A   Mostly Cloudy
12:39 AM 26.6 °F 22.6 °F 24.8 °F 93% 30.39 in 4.0 mi South 3.5 mph - N/A   Partly Cloudy
12:56 AM 27.0 °F 23.0 °F 24.1 °F 89% 30.40 in 5.0 mi South 3.5 mph - N/A   Clear
1:56 AM 26.1 °F 20.5 °F 24.1 °F 92% 30.41 in 6.0 mi SSE 4.6 mph - N/A   Partly Cloudy
2:04 AM 26.6 °F 21.2 °F 24.8 °F 93% 30.41 in 2.0 mi SSE 4.6 mph - N/A   Mostly Cloudy
2:06 AM 26.6 °F 21.2 °F 24.8 °F 93% 30.41 in 1.2 mi SSE 4.6 mph - N/A   Mostly Cloudy
2:21 AM 26.6 °F - 24.8 °F 93% 30.41 in 2.0 mi Calm Calm - N/A   Overcast
2:31 AM 26.6 °F 22.6 °F 24.8 °F 93% 30.41 in 4.0 mi SSE 3.5 mph - N/A   Overcast
2:43 AM 26.6 °F - 23.0 °F 86% 30.42 in 4.0 mi Calm Calm - N/A   Mostly Cloudy
2:53 AM 26.6 °F 22.6 °F 23.0 °F 86% 30.41 in 4.0 mi SE 3.5 mph - N/A   Scattered Clouds
2:56 AM 25.0 °F 20.7 °F 23.0 °F 92% 30.42 in 4.0 mi SE 3.5 mph - N/A   Partly Cloudy
3:56 AM 26.1 °F - 24.1 °F 92% 30.43 in 6.0 mi Calm Calm - N/A   Clear
4:09 AM 26.6 °F - 23.0 °F 86% 30.42 in 2.5 mi Calm Calm - N/A   Scattered Clouds
4:13 AM 24.8 °F - 23.0 °F 93% 30.42 in 1.8 mi Calm Calm - N/A   Mostly Cloudy
4:17 AM 24.8 °F 20.5 °F 23.0 °F 93% 30.43 in 0.8 mi NNW 3.5 mph - N/A   Mist
4:56 AM 27.0 °F - 25.0 °F 92% 30.43 in 0.5 mi Calm Calm - N/A Fog Light Freezing Fog
5:33 AM 28.4 °F - 26.6 °F 93% 30.42 in 0.2 mi Calm Calm - N/A Fog Light Freezing Fog
5:56 AM 28.0 °F - 26.1 °F 92% 30.43 in 0.2 mi Calm Calm - N/A Fog Light Freezing Fog
6:56 AM 28.0 °F - 27.0 °F 96% 30.44 in 0.2 mi Calm Calm - N/A Fog Light Freezing Fog
7:56 AM 28.9 °F - 27.0 °F 92% 30.45 in 0.2 mi Calm Calm - N/A Fog Light Freezing Fog
8:56 AM 30.0 °F - 28.0 °F 92% 30.47 in 0.2 mi Calm Calm - N/A Fog Light Freezing Fog
9:56 AM 30.9 °F - 28.9 °F 92% 30.48 in 0.2 mi Calm Calm - N/A Fog Light Freezing Fog
11:56 AM 32.0 °F - 28.9 °F 88% 30.47 in 0.2 mi Calm Calm - N/A Fog Fog
12:56 PM 32.0 °F - 30.0 °F 92% 30.45 in 0.2 mi Calm Calm - N/A Fog Fog
1:56 PM 32.0 °F - 30.9 °F 96% 30.44 in 0.2 mi Calm Calm - N/A Fog Fog
2:56 PM 32.0 °F - 30.9 °F 96% 30.45 in 0.2 mi Calm Calm - N/A Fog Fog
3:56 PM 32.0 °F - 30.9 °F 96% 30.45 in 0.5 mi Calm Calm - N/A Fog Fog
4:54 PM 32.0 °F - 30.2 °F 93% 30.45 in 0.2 mi Calm Calm - N/A Fog Fog
4:56 PM 32.0 °F - 30.9 °F 96% 30.46 in 0.2 mi Calm Calm - N/A Fog Fog
5:56 PM 30.9 °F - 30.0 °F 96% 30.46 in 0.2 mi Calm Calm - N/A Fog Light Freezing Fog
6:56 PM 30.9 °F - 28.9 °F 92% 30.46 in 0.2 mi Calm Calm - N/A Fog Light Freezing Fog
7:56 PM 30.9 °F - 28.9 °F 92% 30.48 in 0.5 mi Calm Calm - N/A Fog Light Freezing Fog
8:07 PM 30.2 °F - 28.4 °F 93% 30.47 in 0.2 mi Calm Calm - N/A Fog Light Freezing Fog
8:56 PM 30.9 °F - 28.9 °F 92% 30.48 in 0.2 mi Calm Calm - N/A Fog Light Freezing Fog
9:16 PM 30.2 °F 26.7 °F 28.4 °F 93% 30.47 in 0.5 mi NE 3.5 mph - N/A Fog Light Freezing Fog
9:56 PM 30.9 °F - 28.9 °F 92% 30.48 in 0.5 mi Calm Calm - N/A Fog Light Freezing Fog
10:56 PM 30.9 °F 26.2 °F 28.0 °F 89% 30.49 in 0.5 mi NNE 4.6 mph - N/A Fog Light Freezing Fog
11:56 PM 32.0 °F 27.5 °F 28.9 °F 88% 30.49 in 0.5 mi NNE 4.6 mph - N/A Fog Fog